Flag for Argentina Weather past 2 weeks in Corrientes, Corrientes, Argentina

Now
66 °F

Mostly cloudy.


Feels Like: 66 °F
Forecast: 63 / 76 °F
Wind: 5 mph from Southeast

Location: Resistencia Aero.

Current Time: Sep 18, 2014 at 1:38:57 PM

Latest Report: Sep 18, 2014 at 1:00 PM


Visibility: 5 mi

Pressure: 29.86 "Hg

Humidity: 94%

Dew point: 64 °F

Location of CorrientesLocation

Historic Weather in Corrientes — Graph

°F

Corrientes temperature yesterday

Maximum temperature yesterday: 73 °F (at 12:00 PM)
Minimum temperature yesterday: 54 °F (at 1:00 AM)
Average temperature yesterday: 64 °F

Past Weeks' High & Low Weather Summary

 TemperatureHumidityPressure
High97 °F (Sep 9, 2:00 PM)100% (Sep 4, 3:00 PM)30.86 "Hg (Sep 4, 3:00 PM)
Low46 °F (Sep 16, 6:00 AM)39% (Sep 9, 2:00 PM)29.53 "Hg (Sep 9, 3:00 PM)
Average68 °F79%29.92 "Hg
* Reported Sep 3 12:00 Noon — Sep 18 12:00 Noon, Corrientes, Weather by CustomWeather, © 2014

Note: Actual official high and low records may vary slightly from our data, if they occured in-between our weather recording intervals... More about our weather records

Advertising

Corrientes weather history for previous 24 hours

 ConditionsComfort  
Time TempWeatherWind HumidityBarometerVisibility
12:00 PM
Sep 18
68 °FMostly cloudy.2 mph88%29.89 "Hg4 mi
11:00 AM66 °FMore clouds than sun.6 mph88%29.89 "Hg4 mi
10:00 AM64 °FMore clouds than sun.3 mph94%29.89 "Hg4 mi
9:00 AM63 °FMore clouds than sun.5 mph100%29.86 "Hg4 mi
8:00 AM63 °FMild.5 mph94%29.86 "HgN/A
7:00 AM63 °FThunderstorms. Cloudy.3 mph94%29.95 "Hg1 mi
6:00 AM63 °FThunderstorms. Low clouds.13 mph100%29.98 "Hg3 mi
5:00 AM63 °FThunderstorms. Mostly cloudy.6 mph94%29.80 "HgN/A
4:00 AM64 °FMostly cloudy.6 mph88%29.83 "HgN/A
3:00 AM64 °FClear.3 mph88%29.89 "Hg10 mi
2:00 AM64 °FClear.6 mph83%29.89 "Hg10 mi
1:00 AM64 °FClear.6 mph83%29.92 "Hg10 mi
12:00 AM64 °FClear.6 mph83%29.92 "Hg10 mi
11:00 PM
Sep 17
64 °FClear.3 mph83%29.95 "Hg10 mi
10:00 PM66 °FClear.3 mph78%29.95 "Hg10 mi
9:00 PM66 °FClear.5 mph78%29.95 "Hg10 mi
8:00 PM68 °FClear.2 mph73%29.92 "Hg10 mi
7:00 PM68 °FClear.7 mph73%29.89 "Hg10 mi
5:00 PM73 °FSunny.5 mph50%29.89 "Hg10 mi
Weather by CustomWeather, © 2014

See weather overviewHow to use our weather pages